Regional Weather Roundup
Issued by NWS

Home | Current Version | Previous Version | Graphics & Text | Print | Product List | Glossary Off
Versions: 1 2 3 4 5 6 7 8 9 10 11 12 13 14 15 16 17 18 19 20 21 22 23 24 25 26 27 28 29 30 31 32 33 34 35 36 37 38 39 40 41 42 43 44 45 46 47 48 49 50

000
ASUS43 KDMX 260907
RWRIA

WEATHER ROUNDUP FOR IOWA
NATIONAL WEATHER SERVICE DES MOINES IA
400 AM CDT TUE MAY 26 2015

NOTE: "FAIR" INDICATES FEW OR NO CLOUDS BELOW 12,000 FEET WITH NO
SIGNIFICANT WEATHER AND/OR OBSTRUCTIONS TO VISIBILITY.

* - THESE STATIONS ARE NOT NWS STATIONS...THUS NOT UNDER NWS
QUALITY CONTROL.  THEY ALSO DO NOT REPORT WEATHER SUCH
AS PRECIPITATION OR FOG.

IAZ001>003-012>014-020>022-031>034-043>046-261000-
   NORTHWEST IOWA

CITY           SKY/WX    TMP DP  RH WIND       PRES   REMARKS
CARROLL *      CLOUDY    61  57  88 VRB6G13   29.82R
CHEROKEE *     CLOUDY    59  59 100 S5        29.77F
DENISON *      PTCLDY    59  59 100 SE6       29.79R
LE MARS *      LGT RAIN  63  61  94 E5G14     29.78R
ORANGE CITY *  RAIN      59  57  94 NE7       29.78S
SHELDON *      CLOUDY    59  59 100 NE8       29.78R
SIOUX CITY     CLOUDY    62  60  93 E5        29.75F
SPENCER        CLOUDY    61  58  90 CALM      29.78F
STORM LAKE *   CLEAR     59  57  94 SW8       29.79F
$$

IAZ055>058-069>071-079>083-090>094-261000-
   SOUTHWEST IOWA

CITY           SKY/WX    TMP DP  RH WIND       PRES   REMARKS
ATLANTIC *     CLOUDY    61  59  94 S12G17    29.82S
AUDUBON *      LGT RAIN  61  55  82 S8        29.82S
COUNCIL BLFS * MOCLDY    61  61 100 S16       29.79F
CRESTON *      LGT RAIN  59  59 100 W9        29.80F
HARLAN  *      CLOUDY    63  63 100 S15       29.83S
LAMONI         CLOUDY    62  59  90 NW3       29.79F
RED OAK *      LGT RAIN  61  61 100 S14       29.82F
SHENANDOAH *   LGT RAIN  61  61 100 S13G18    29.82F
$$

IAZ047>049-059>061-072>074-084-261000-
   CENTRAL IOWA

CITY           SKY/WX    TMP DP  RH WIND       PRES   REMARKS
AMES           LGT RAIN  60  58  92 S8        29.84R
ANKENY *       LGT RAIN  61  61 100 SW10G17   29.82R
CHARITON *     CLOUDY    61  61 100 W10       29.80F
DES MOINES     TSTM      63  59  88 VRB5      29.82F FOG
GRINNELL*      CLOUDY    63  57  82 E8        29.80F
KNOXVILLE *    CLOUDY    63  59  88 W9G21     29.79R
MARSHALLTOWN   LGT RAIN  62  57  83 SE13      29.78F
PELLA *        CLOUDY    64  61  88 E5        29.79F
PERRY *        RAIN      61  59  94 S12       29.84R
$$

IAZ004>006-015-016-023>025-035-036-261000-
   NORTH CENTRAL IOWA

CITY           SKY/WX    TMP DP  RH WIND       PRES   REMARKS
ALGONA *       CLEAR     59  59 100 CALM      29.79S
CLARION *      PTCLDY    61  59  94 CALM      29.80R
ESTHERVILLE    CLOUDY    58  56  93 N7        29.79S
FORT DODGE *   CLOUDY    59  55  88 CALM      29.79S
MASON CITY     CLOUDY    59  57  93 SE5       29.82R
FOREST CITY *  CLEAR     54  54 100 SE7       29.80S
IOWA FALLS *     N/A     61  57  88 E8        29.80F
$$

IAZ007>011-017>019-026>030-037>042-050>054-066-261000-
   NORTHEAST IOWA

CITY           SKY/WX    TMP DP  RH WIND       PRES   REMARKS
CEDAR RAPIDS   CLOUDY    67  64  90 E7        29.81F
CHARLES CITY * MOCLDY    59  59 100 SE6       29.81S
CLINTON *      MOCLDY    66  64  94 S8        29.88F
DECORAH *      CLEAR     59  59 100 SE6       29.80F
DUBUQUE        CLOUDY    66  63  90 CALM      29.86F
MONTICELLO *   MOCLDY    66  66 100 NE5       29.83F
OELWEIN *      MOCLDY    61  59  94 SE9       29.81F
WATERLOO       MOCLDY    61  59  93 SE8       29.79F
$$

IAZ064-065-067-068-078-261000-
   EAST CENTRAL IOWA

CITY           SKY/WX    TMP DP  RH WIND       PRES   REMARKS
DAVENPORT      MOCLDY    69  65  86 S14       29.85F
IOWA CITY      CLOUDY    67  64  90 SE5       29.83F
MT. PLEASANT * CLOUDY    68  66  94 SE9       29.83F
MUSCATINE *    CLEAR     70  66  88 SE8       29.84S
QUAD CITIES    MOCLDY    69  65  86 S8        29.84F
$$

IAZ062-063-075>077-085>089-095>099-261000-
   SOUTHEAST IOWA

CITY           SKY/WX    TMP DP  RH WIND       PRES   REMARKS
BURLINGTON     CLOUDY    70  67  90 S7        29.83F
FAIRFIELD *    CLOUDY    66  63  88 SE6       29.81F
FORT MADISON * CLEAR     68  66  94 SE6       29.84F
KEOKUK *       PTCLDY    70  66  88 SE7       29.80F
OSKALOOSA *      N/A     64  61  88 E8        29.80F
CENTERVILLE *  CLEAR     63  63 100 E6        29.79F
OTTUMWA        CLOUDY    64  59  83 E7        29.79F
WASHINGTON *   CLEAR     64  64 100 E6        29.83F
$$

ABBREVIATIONS USED IN REMARKS
   TC - TEMPERATURES IN CELSIUS
  WCI - WIND CHILL INDEX
   HX - HEAT INDEX
  VSB - VISIBILITY
$$




USA.gov is the U.S. government's official web portal to all federal, state and local government web resources and services.